レモン彗星

P/2022 BV9 ( Lemmon )

English version
Home page
Updated on April 29, 2023

---------------------------------------------------------------------

・ プロフィール

発見日 2022年1月30日
発見光度 20.5等
発見者 Mt. Lemmon Survey

・ 軌道要素

T 2020 Oct. 23.91099 TT                                 Rudenko                 
q   3.3347640            (2000.0)            P               Q                  
n   0.10824854     Peri.   16.16935     +0.99117475     +0.10583090             
a   4.3603501      Node   337.29362     -0.13245400     +0.81493727             
e   0.2352073      Incl.   11.93503     +0.00534356     +0.56980441             
P   9.11                                                                        
>From 109 observations 2021 Feb. 6-2023 Apr. 11.                                 

・ 光度変化

        H = 13.0  G = 0.15

---------------------------------------------------------------------

軌道要素はM.P.E.C. 2023-H240に掲載されたものです。
光度グラフはComet for Windowsで作成したものです。

---------------------------------------------------------------------

Copyright(C) Seiichi Yoshida (comet@aerith.net). All rights reserved.